Hourly Data Report for February 25, 2019

TORONTO INTL A
ONTARIO
Current Station Operator: NAVCAN

43°40'36.000" N
79°37'50.000" W
173.40 m
6158731
71624
YYZ

Download Data

Hourly Data (February 2019)
Hourly Data Report for February 25, 2019
TIME
LST
Temp Definition
°C
Dew Point Definition
°C
Rel Hum Definition
%
Precip. Amount Definition
mm

Wind Dir Definition
10's deg

Wind Spd Definition
km/h
Visibility Definition
km
Stn Press Definition
kPa
Hmdx Definition


Wind Chill Definition


Weather Definition


00:00 -2.9 -6.7 75   25 53 16.1 97.50   -12 Snow Showers
01:00 -3.0 -7.0 74   26 48 16.1 97.58   -12 Snow Showers
02:00 -3.2 -7.4 73   26 43 9.7 97.73   -12 Snow Showers
03:00 -3.8 -7.9 73   27 59 9.7 97.84   -14 Snow Showers
04:00 -4.3 -8.6 72   27 45 9.7 98.05   -14 Snow Showers
05:00 -4.7 -9.3 70   28 49 8.1 98.22   -14 Snow Showers
06:00 -5.4 -10.0 71   27 48 9.7 98.42   -15 Snow Showers
07:00 -5.7 -10.5 69   27 60 24.1 98.60   -17 Blowing Snow
08:00 -5.7 -10.7 68   28 54 24.1 98.81   -16 LegendNANA
09:00 -4.9 -10.1 67   29 50 24.1 99.02   -15 LegendNANA
10:00 -5.0 -10.6 65   28 64 24.1 99.20   -16 Mostly Cloudy
11:00 -4.6 -10.2 65   29 50 9.7 99.37   -14 Snow Showers
12:00 -5.5 -9.8 72   30 43 9.7 99.58   -15 Snow Showers,Blowing Snow
13:00 -5.2 -10.2 68   29 54 1.0 99.69   -16 Snow Showers,Blowing Snow
14:00 -4.9 -10.6 65   29 66 24.1 99.79   -16 Blowing Snow
15:00 -5.7 -10.8 67   29 35 9.7 99.95   -14 Snow Showers,Blowing Snow
16:00 -5.5 -11.3 64   28 52 24.1 100.06   -16 Mainly Clear
17:00 -5.8 -12.0 62   28 31 9.7 100.22   -14 LegendNANA
18:00 -6.6 -11.8 67   30 27 16.1 100.30   -15 Snow Showers
19:00 -6.9 -11.9 68   28 30 16.1 100.41   -15 Snow Showers
20:00 -7.2 -12.2 68   26 28 19.3 100.49   -16 Snow Showers
21:00 -7.8 -12.7 68   26 27 24.1 100.51   -16 LegendNANA
22:00 -7.8 -12.7 68   26 23 24.1 100.56   -16 Mostly Cloudy
23:00 -7.8 -12.7 68   27 25 24.1 100.57   -16 LegendNANA

Notes on Data Quality.

Legend

  • E = Estimated
  • M = Missing
  • NA = Not Available*
  • [empty] = Indicates an unobserved value
Date modified: